Simultaneous Nadir Overpasses (SNOs) Predictions

Prediction of SNOs between GOES-17 and NOAA-20 Satellite Orbit:

Table of predicted SNOs for the next 14.0 days since TLE Epoch: 9/5/2020
Index Date Time (GOES-17) GOES-17 Lat,Lon NOAA-20 Lat,Lon Distance(km) Time Diff (sec)
1 09/06/2020 10:45:31 0.06,-137.19 0.65,-139.79 295.99 80
2 09/07/2020 10:24:06 0.06,-137.21 -0.36,-135.25 222.35 80
3 09/08/2020 22:46:02 -0.05,-137.24 -0.78,-140.56 378.69 80
4 09/09/2020 22:29:56 -0.05,-137.25 0.22,-136.03 139.18 80
5 09/11/2020 10:51:43 0.05,-137.25 0.97,-141.29 460.57 80
6 09/12/2020 10:30:17 0.04,-137.26 -0.04,-136.76 56.69 80
7 09/14/2020 22:33:28 -0.03,-137.28 -0.09,-137.54 29.44 80
8 09/15/2020 22:17:23 -0.03,-137.28 0.92,-133.00 487.34 80
9 09/17/2020 10:39:09 0.02,-137.27 0.27,-138.26 113.79 80
10 09/18/2020 10:17:43 0.03,-137.27 -0.74,-133.73 402.75 80
